owner,sensor,date,latitude,longitude,vertical_datum,direction_of_sea_water_velocity,sea_water_speed,upward_sea_water_velocity,qcFlag 
TABS,ioos:station:wmo:42051:1,1999-05-01T00:00:00Z,29.6350,-93.6417,2.0,241.851946,19.26884013,-99999.0,'11111222,11111222,99999999' 
TABS,ioos:station:wmo:42051:1,1999-05-01T00:30:00Z,29.6350,-93.6417,2.0,242.2811423,16.6620827,-99999.0,'11111222,11111222,99999999' 
TABS,ioos:station:wmo:42051:1,1999-05-01T01:00:00Z,29.6350,-93.6417,2.0,221.02609,15.20398961,-99999.0,'11111222,11111222,99999999' 
TABS,ioos:station:wmo:42051:1,1999-05-01T01:30:00Z,29.6350,-93.6417,2.0,223.2960556,17.60059658,-99999.0,'11111222,11111222,99999999' 
TABS,ioos:station:wmo:42051:1,1999-05-01T02:00:00Z,29.6350,-93.6417,2.0,237.8053172,12.8567842,-99999.0,'11111222,11111222,99999999' 
TABS,ioos:station:wmo:42051:1,1999-05-01T02:30:00Z,29.6350,-93.6417,2.0,249.1115012,12.11630307,-99999.0,'11111222,11111222,99999999' 
TABS,ioos:station:wmo:42051:1,1999-05-01T03:00:00Z,29.6350,-93.6417,2.0,259.8032711,11.8064601,-99999.0,'11111222,11111222,99999999' 
TABS,ioos:station:wmo:42051:1,1999-05-01T03:30:00Z,29.6350,-93.6417,2.0,270.5548776,15.50072579,-99999.0,'11111222,11111222,99999999' 
TABS,ioos:station:wmo:42051:1,1999-05-01T04:00:00Z,29.6350,-93.6417,2.0,266.0068955,14.9362512,-99999.0,'11111222,11111222,99999999' 
TABS,ioos:station:wmo:42051:1,1999-05-01T04:30:00Z,29.6350,-93.6417,2.0,270.0004209,14.6,-99999.0,'11111222,11111222,99999999' 
TABS,ioos:station:wmo:42051:1,1999-05-01T05:00:00Z,29.6350,-93.6417,2.0,262.9380297,14.56044642,-99999.0,'11111222,11111222,99999999' 
TABS,ioos:station:wmo:42051:1,1999-05-01T05:30:00Z,29.6350,-93.6417,2.0,265.1224822,19.28984189,-99999.0,'11111222,11111222,99999999' 
TABS,ioos:station:wmo:42051:1,1999-05-01T06:00:00Z,29.6350,-93.6417,2.0,265.1298916,21.08611391,-99999.0,'11111222,11111222,99999999' 
TABS,ioos:station:wmo:42051:1,1999-05-01T06:30:00Z,29.6350,-93.6417,2.0,267.0825786,20.43647964,-99999.0,'11111222,11111222,99999999' 
TABS,ioos:station:wmo:42051:1,1999-05-01T07:00:00Z,29.6350,-93.6417,2.0,258.7560643,23.69476735,-99999.0,'11111222,11111222,99999999' 
TABS,ioos:station:wmo:42051:1,1999-05-01T07:30:00Z,29.6350,-93.6417,2.0,255.6352922,25.83774371,-99999.0,'11111222,11111222,99999999' 
TABS,ioos:station:wmo:42051:1,1999-05-01T08:00:00Z,29.6350,-93.6417,2.0,253.6100771,26.40286727,-99999.0,'11111222,11111222,99999999' 
TABS,ioos:station:wmo:42051:1,1999-05-01T08:30:00Z,29.6350,-93.6417,2.0,256.6696468,29.71044597,-99999.0,'11111222,11111222,99999999' 
TABS,ioos:station:wmo:42051:1,1999-05-01T09:00:00Z,29.6350,-93.6417,2.0,256.458768,33.10007402,-99999.0,'11111222,11111222,99999999' 
TABS,ioos:station:wmo:42051:1,1999-05-01T09:30:00Z,29.6350,-93.6417,2.0,256.328846,27.75634162,-99999.0,'11111222,11111222,99999999' 
TABS,ioos:station:wmo:42051:1,1999-05-01T10:00:00Z,29.6350,-93.6417,2.0,248.8977257,22.35938505,-99999.0,'11111222,11111222,99999999' 
TABS,ioos:station:wmo:42051:1,1999-05-01T10:30:00Z,29.6350,-93.6417,2.0,263.4947797,18.4487669,-99999.0,'11111222,11111222,99999999' 
TABS,ioos:station:wmo:42051:1,1999-05-01T11:00:00Z,29.6350,-93.6417,2.0,255.7799182,21.20984913,-99999.0,'11111222,11111222,99999999' 
TABS,ioos:station:wmo:42051:1,1999-05-01T11:30:00Z,29.6350,-93.6417,2.0,256.643942,24.5026774,-99999.0,'11111222,11111222,99999999' 
TABS,ioos:station:wmo:42051:1,1999-05-01T12:00:00Z,29.6350,-93.6417,2.0,248.8319882,29.71492891,-99999.0,'11111222,11111222,99999999' 
TABS,ioos:station:wmo:42051:1,1999-05-01T12:30:00Z,29.6350,-93.6417,2.0,248.1533478,30.82357864,-99999.0,'11111222,11111222,99999999' 
TABS,ioos:station:wmo:42051:1,1999-05-01T13:00:00Z,29.6350,-93.6417,2.0,242.153022,29.99317422,-99999.0,'11111222,11111222,99999999' 
TABS,ioos:station:wmo:42051:1,1999-05-01T13:30:00Z,29.6350,-93.6417,2.0,232.6633277,22.11073269,-99999.0,'11111222,11111222,99999999' 
TABS,ioos:station:wmo:42051:1,1999-05-01T14:00:00Z,29.6350,-93.6417,2.0,254.3924368,27.69099854,-99999.0,'11111222,11111222,99999999' 
TABS,ioos:station:wmo:42051:1,1999-05-01T14:30:00Z,29.6350,-93.6417,2.0,251.0496543,25.6818944,-99999.0,'11111222,11111222,99999999' 
TABS,ioos:station:wmo:42051:1,1999-05-01T15:00:00Z,29.6350,-93.6417,2.0,250.1916718,23.75552567,-99999.0,'11111222,11111222,99999999' 
TABS,ioos:station:wmo:42051:1,1999-05-01T15:30:00Z,29.6350,-93.6417,2.0,243.6288118,19.7893153,-99999.0,'11111222,11111222,99999999' 
TABS,ioos:station:wmo:42051:1,1999-05-01T16:00:00Z,29.6350,-93.6417,2.0,244.6476641,18.80060105,-99999.0,'11111222,11111222,99999999' 
TABS,ioos:station:wmo:42051:1,1999-05-01T16:30:00Z,29.6350,-93.6417,2.0,243.619414,20.79554039,-99999.0,'11111222,11111222,99999999' 
TABS,ioos:station:wmo:42051:1,1999-05-01T17:00:00Z,29.6350,-93.6417,2.0,245.3248493,20.33692455,-99999.0,'11111222,11111222,99999999' 
TABS,ioos:station:wmo:42051:1,1999-05-01T17:30:00Z,29.6350,-93.6417,2.0,259.6351978,21.51098557,-99999.0,'11111222,11111222,99999999' 
TABS,ioos:station:wmo:42051:1,1999-05-01T18:00:00Z,29.6350,-93.6417,2.0,267.0905846,26.40402431,-99999.0,'11111222,11111222,99999999' 
TABS,ioos:station:wmo:42051:1,1999-05-01T18:30:00Z,29.6350,-93.6417,2.0,252.4214879,25.16505712,-99999.0,'11111222,11111222,99999999' 
TABS,ioos:station:wmo:42051:1,1999-05-01T19:00:00Z,29.6350,-93.6417,2.0,257.0121951,23.85009853,-99999.0,'11111222,11111222,99999999' 
TABS,ioos:station:wmo:42051:1,1999-05-01T19:30:00Z,29.6350,-93.6417,2.0,256.9246146,36.8657524,-99999.0,'11111222,11111222,99999999' 
TABS,ioos:station:wmo:42051:1,1999-05-01T20:00:00Z,29.6350,-93.6417,2.0,252.6777424,34.02304072,-99999.0,'11111222,11111222,99999999' 
TABS,ioos:station:wmo:42051:1,1999-05-01T20:30:00Z,29.6350,-93.6417,2.0,255.2288491,25.73029343,-99999.0,'11111222,11111222,99999999' 
TABS,ioos:station:wmo:42051:1,1999-05-01T21:00:00Z,29.6350,-93.6417,2.0,251.0166213,20.16676722,-99999.0,'11111222,11111222,99999999' 
TABS,ioos:station:wmo:42051:1,1999-05-01T21:30:00Z,29.6350,-93.6417,2.0,250.8073564,21.29347553,-99999.0,'11111222,11111222,99999999' 
TABS,ioos:station:wmo:42051:1,1999-05-01T22:00:00Z,29.6350,-93.6417,2.0,248.6794078,22.55349419,-99999.0,'11111222,11111222,99999999' 
TABS,ioos:station:wmo:42051:1,1999-05-01T22:30:00Z,29.6350,-93.6417,2.0,236.3307171,15.04347034,-99999.0,'11111222,11111222,99999999' 
TABS,ioos:station:wmo:42051:1,1999-05-01T23:00:00Z,29.6350,-93.6417,2.0,232.4167753,12.21494576,-99999.0,'11111222,11111222,99999999' 
TABS,ioos:station:wmo:42051:1,1999-05-01T23:30:00Z,29.6350,-93.6417,2.0,254.7757283,19.30755811,-99999.0,'11111222,11111222,99999999' 
TABS,ioos:station:wmo:42051:1,1999-05-02T00:00:00Z,29.6350,-93.6417,2.0,250.2198579,18.05525408,-99999.0,'11111222,11111222,99999999' 
TABS,ioos:station:wmo:42051:1,1999-05-02T00:30:00Z,29.6350,-93.6417,2.0,250.5870269,13.90023381,-99999.0,'11111222,11111222,99999999' 
TABS,ioos:station:wmo:42051:1,1999-05-02T01:00:00Z,29.6350,-93.6417,2.0,233.1092647,11.17800072,-99999.0,'11111222,11111222,99999999' 
TABS,ioos:station:wmo:42051:1,1999-05-02T01:30:00Z,29.6350,-93.6417,2.0,229.465138,14.89445534,-99999.0,'11111222,11111222,99999999' 
TABS,ioos:station:wmo:42051:1,1999-05-02T02:00:00Z,29.6350,-93.6417,2.0,227.5158078,11.91916943,-99999.0,'11111222,11111222,99999999' 
TABS,ioos:station:wmo:42051:1,1999-05-02T02:30:00Z,29.6350,-93.6417,2.0,215.5151047,8.968506007,-99999.0,'11133222,11111222,99999999' 
TABS,ioos:station:wmo:42051:1,1999-05-02T03:00:00Z,29.6350,-93.6417,2.0,212.1133943,8.972898083,-99999.0,'11133222,11111222,99999999' 
TABS,ioos:station:wmo:42051:1,1999-05-02T03:30:00Z,29.6350,-93.6417,2.0,217.352418,7.120252805,-99999.0,'11133222,11111222,99999999' 
TABS,ioos:station:wmo:42051:1,1999-05-02T04:00:00Z,29.6350,-93.6417,2.0,211.2455175,4.877478857,-99999.0,'11133222,11111222,99999999' 
TABS,ioos:station:wmo:42051:1,1999-05-02T04:30:00Z,29.6350,-93.6417,2.0,197.7388309,3.905700961,-99999.0,'11133222,11111222,99999999' 
TABS,ioos:station:wmo:42051:1,1999-05-02T05:00:00Z,29.6350,-93.6417,2.0,211.5906943,4.543269748,-99999.0,'11133222,11111222,99999999' 
TABS,ioos:station:wmo:42051:1,1999-05-02T05:30:00Z,29.6350,-93.6417,2.0,217.5969022,4.884393514,-99999.0,'11133222,11111222,99999999' 
TABS,ioos:station:wmo:42051:1,1999-05-02T06:00:00Z,29.6350,-93.6417,2.0,226.2802977,4.74587189,-99999.0,'11133222,11111222,99999999' 
TABS,ioos:station:wmo:42051:1,1999-05-02T06:30:00Z,29.6350,-93.6417,2.0,238.6444705,4.016590594,-99999.0,'11133222,11111222,99999999' 
TABS,ioos:station:wmo:42051:1,1999-05-02T07:00:00Z,29.6350,-93.6417,2.0,200.1776765,3.015045605,-99999.0,'11133222,11111222,99999999' 
TABS,ioos:station:wmo:42051:1,1999-05-02T07:30:00Z,29.6350,-93.6417,2.0,220.7874792,4.33212419,-99999.0,'11133222,11111222,99999999' 
TABS,ioos:station:wmo:42051:1,1999-05-02T08:00:00Z,29.6350,-93.6417,2.0,245.8160234,4.735609781,-99999.0,'11133222,11111222,99999999' 
TABS,ioos:station:wmo:42051:1,1999-05-02T08:30:00Z,29.6350,-93.6417,2.0,245.1775713,4.263918386,-99999.0,'11133222,11111222,99999999' 
TABS,ioos:station:wmo:42051:1,1999-05-02T09:00:00Z,29.6350,-93.6417,2.0,246.0569854,5.864639801,-99999.0,'11133222,11111222,99999999' 
TABS,ioos:station:wmo:42051:1,1999-05-02T09:30:00Z,29.6350,-93.6417,2.0,235.3198936,7.065161003,-99999.0,'11133222,11111222,99999999' 
TABS,ioos:station:wmo:42051:1,1999-05-02T10:00:00Z,29.6350,-93.6417,2.0,238.2748463,7.359653524,-99999.0,'11133222,11111222,99999999' 
TABS,ioos:station:wmo:42051:1,1999-05-02T10:30:00Z,29.6350,-93.6417,2.0,214.4942277,6.3214318,-99999.0,'11133222,11111222,99999999' 
TABS,ioos:station:wmo:42051:1,1999-05-02T11:00:00Z,29.6350,-93.6417,2.0,217.0925401,6.168046692,-99999.0,'11133222,11111222,99999999' 
TABS,ioos:station:wmo:42051:1,1999-05-02T11:30:00Z,29.6350,-93.6417,2.0,234.7506633,4.383754099,-99999.0,'11133222,11111222,99999999' 
TABS,ioos:station:wmo:42051:1,1999-05-02T12:00:00Z,29.6350,-93.6417,2.0,240.2350578,3.605689948,-99999.0,'11133222,11111222,99999999' 
TABS,ioos:station:wmo:42051:1,1999-05-02T12:30:00Z,29.6350,-93.6417,2.0,157.596975,5.483885484,-99999.0,'11133222,11111222,99999999' 
TABS,ioos:station:wmo:42051:1,1999-05-02T13:00:00Z,29.6350,-93.6417,2.0,159.4306301,5.094801272,-99999.0,'11133222,11111222,99999999' 
TABS,ioos:station:wmo:42051:1,1999-05-02T13:30:00Z,29.6350,-93.6417,2.0,155.0506888,4.59918471,-99999.0,'11133222,11111222,99999999' 
TABS,ioos:station:wmo:42051:1,1999-05-02T14:00:00Z,29.6350,-93.6417,2.0,137.322501,5.059970356,-99999.0,'11133222,11111222,99999999' 
TABS,ioos:station:wmo:42051:1,1999-05-02T14:30:00Z,29.6350,-93.6417,2.0,152.7445249,5.196999134,-99999.0,'11133222,11111222,99999999' 
TABS,ioos:station:wmo:42051:1,1999-05-02T15:00:00Z,29.6350,-93.6417,2.0,164.7644161,5.099215626,-99999.0,'11133222,11111222,99999999' 
TABS,ioos:station:wmo:42051:1,1999-05-02T15:30:00Z,29.6350,-93.6417,2.0,179.9997895,2.53,-99999.0,'11133222,11111222,99999999' 
TABS,ioos:station:wmo:42051:1,1999-05-02T16:00:00Z,29.6350,-93.6417,2.0,154.1823247,4.799010315,-99999.0,'11133222,11111222,99999999' 
TABS,ioos:station:wmo:42051:1,1999-05-02T16:30:00Z,29.6350,-93.6417,2.0,149.6445666,5.006325998,-99999.0,'11133222,11111222,99999999' 
TABS,ioos:station:wmo:42051:1,1999-05-02T17:00:00Z,29.6350,-93.6417,2.0,160.9012574,4.095424276,-99999.0,'11133222,11111222,99999999' 
TABS,ioos:station:wmo:42051:1,1999-05-02T17:30:00Z,29.6350,-93.6417,2.0,171.2092669,1.963058838,-99999.0,'11133222,11111222,99999999' 
TABS,ioos:station:wmo:42051:1,1999-05-02T18:00:00Z,29.6350,-93.6417,2.0,168.0642149,5.02871753,-99999.0,'11133222,11111222,99999999' 
TABS,ioos:station:wmo:42051:1,1999-05-02T18:30:00Z,29.6350,-93.6417,2.0,186.3868916,4.045108157,-99999.0,'11133222,11111222,99999999' 
TABS,ioos:station:wmo:42051:1,1999-05-02T19:00:00Z,29.6350,-93.6417,2.0,234.0346582,4.052505398,-99999.0,'11133222,11111222,99999999' 
TABS,ioos:station:wmo:42051:1,1999-05-02T19:30:00Z,29.6350,-93.6417,2.0,233.181016,4.472001789,-99999.0,'11133222,11111222,99999999' 
TABS,ioos:station:wmo:42051:1,1999-05-02T20:00:00Z,29.6350,-93.6417,2.0,227.8812613,4.219691932,-99999.0,'11133222,11111222,99999999' 
TABS,ioos:station:wmo:42051:1,1999-05-02T20:30:00Z,29.6350,-93.6417,2.0,212.6656077,2.482680004,-99999.0,'11133222,11111222,99999999' 
TABS,ioos:station:wmo:42051:1,1999-05-02T21:00:00Z,29.6350,-93.6417,2.0,182.7434881,3.133592188,-99999.0,'11133222,11111222,99999999' 
TABS,ioos:station:wmo:42051:1,1999-05-02T21:30:00Z,29.6350,-93.6417,2.0,164.957887,4.007305828,-99999.0,'11133222,11111222,99999999' 
TABS,ioos:station:wmo:42051:1,1999-05-02T22:00:00Z,29.6350,-93.6417,2.0,174.5249184,3.144344129,-99999.0,'11133222,11111222,99999999' 
TABS,ioos:station:wmo:42051:1,1999-05-02T22:30:00Z,29.6350,-93.6417,2.0,179.9997895,1.79,-99999.0,'11133222,11111222,99999999' 
TABS,ioos:station:wmo:42051:1,1999-05-02T23:00:00Z,29.6350,-93.6417,2.0,185.2257047,3.293690939,-99999.0,'11133222,11111222,99999999' 
TABS,ioos:station:wmo:42051:1,1999-05-02T23:30:00Z,29.6350,-93.6417,2.0,187.1840401,2.39883305,-99999.0,'11133222,11111222,99999999' 
TABS,ioos:station:wmo:42051:1,1999-05-03T00:00:00Z,29.6350,-93.6417,2.0,171.1814529,4.827059146,-99999.0,'11133222,11111222,99999999' 
TABS,ioos:station:wmo:42051:1,1999-05-03T00:30:00Z,29.6350,-93.6417,2.0,159.6627755,4.287248535,-99999.0,'11133222,11111222,99999999' 
TABS,ioos:station:wmo:42051:1,1999-05-03T01:00:00Z,29.6350,-93.6417,2.0,147.8070477,6.156500629,-99999.0,'11133222,11111222,99999999' 
TABS,ioos:station:wmo:42051:1,1999-05-03T01:30:00Z,29.6350,-93.6417,2.0,146.0003366,7.189019405,-99999.0,'11133222,11111222,99999999' 
TABS,ioos:station:wmo:42051:1,1999-05-03T02:00:00Z,29.6350,-93.6417,2.0,151.6873398,6.599469676,-99999.0,'11133222,11111222,99999999' 
TABS,ioos:station:wmo:42051:1,1999-05-03T02:30:00Z,29.6350,-93.6417,2.0,147.6615709,5.290538725,-99999.0,'11133222,11111222,99999999' 
TABS,ioos:station:wmo:42051:1,1999-05-03T03:00:00Z,29.6350,-93.6417,2.0,150.6713632,4.266907545,-99999.0,'11133222,11111222,99999999' 
TABS,ioos:station:wmo:42051:1,1999-05-03T03:30:00Z,29.6350,-93.6417,2.0,127.9488249,3.398602654,-99999.0,'11133222,11111222,99999999' 
TABS,ioos:station:wmo:42051:1,1999-05-03T04:00:00Z,29.6350,-93.6417,2.0,124.7027703,4.707366567,-99999.0,'11133222,11111222,99999999' 
TABS,ioos:station:wmo:42051:1,1999-05-03T04:30:00Z,29.6350,-93.6417,2.0,139.9226987,4.861614958,-99999.0,'11133222,11111222,99999999' 
TABS,ioos:station:wmo:42051:1,1999-05-03T05:00:00Z,29.6350,-93.6417,2.0,120.6026902,3.8107742,-99999.0,'11133222,11111222,99999999' 
TABS,ioos:station:wmo:42051:1,1999-05-03T05:30:00Z,29.6350,-93.6417,2.0,143.8231332,4.794350842,-99999.0,'11133222,11111222,99999999' 
TABS,ioos:station:wmo:42051:1,1999-05-03T06:00:00Z,29.6350,-93.6417,2.0,144.0348686,4.052505398,-99999.0,'11133222,11111222,99999999' 
TABS,ioos:station:wmo:42051:1,1999-05-03T06:30:00Z,29.6350,-93.6417,2.0,190.0852423,2.569708155,-99999.0,'11133222,11111222,99999999' 
TABS,ioos:station:wmo:42051:1,1999-05-03T07:00:00Z,29.6350,-93.6417,2.0,111.9338338,1.606268969,-99999.0,'11133222,11111222,99999999' 
TABS,ioos:station:wmo:42051:1,1999-05-03T07:30:00Z,29.6350,-93.6417,2.0,158.5308513,4.480903927,-99999.0,'11133222,11111222,99999999' 
TABS,ioos:station:wmo:42051:1,1999-05-03T08:00:00Z,29.6350,-93.6417,2.0,159.8219026,3.015045605,-99999.0,'11133222,11111222,99999999' 
TABS,ioos:station:wmo:42051:1,1999-05-03T08:30:00Z,29.6350,-93.6417,2.0,183.6060897,2.384722206,-99999.0,'11133222,11111222,99999999' 
TABS,ioos:station:wmo:42051:1,1999-05-03T09:00:00Z,29.6350,-93.6417,2.0,203.6038494,2.597306297,-99999.0,'11133222,11111222,99999999' 
TABS,ioos:station:wmo:42051:1,1999-05-03T09:30:00Z,29.6350,-93.6417,2.0,220.5708257,4.120594617,-99999.0,'11133222,11111222,99999999' 
TABS,ioos:station:wmo:42051:1,1999-05-03T10:00:00Z,29.6350,-93.6417,2.0,237.4945667,3.889280139,-99999.0,'11133222,11111222,99999999' 
TABS,ioos:station:wmo:42051:1,1999-05-03T10:30:00Z,29.6350,-93.6417,2.0,195.9269994,4.336473221,-99999.0,'11133222,11111222,99999999' 
TABS,ioos:station:wmo:42051:1,1999-05-03T11:00:00Z,29.6350,-93.6417,2.0,179.9997895,4.32,-99999.0,'11133222,11111222,99999999' 
TABS,ioos:station:wmo:42051:1,1999-05-03T11:30:00Z,29.6350,-93.6417,2.0,184.7988042,5.378856756,-99999.0,'11133222,11111222,99999999' 
TABS,ioos:station:wmo:42051:1,1999-05-03T12:00:00Z,29.6350,-93.6417,2.0,195.8725914,3.254074369,-99999.0,'11133222,11111222,99999999' 
TABS,ioos:station:wmo:42051:1,1999-05-03T12:30:00Z,29.6350,-93.6417,2.0,172.3547941,4.510088691,-99999.0,'11133222,11111222,99999999' 
TABS,ioos:station:wmo:42051:1,1999-05-03T13:00:00Z,29.6350,-93.6417,2.0,190.0626043,4.235150529,-99999.0,'11133222,11111222,99999999' 
TABS,ioos:station:wmo:42051:1,1999-05-03T13:30:00Z,29.6350,-93.6417,2.0,181.4786945,5.811935994,-99999.0,'11133222,11111222,99999999' 
TABS,ioos:station:wmo:42051:1,1999-05-03T14:00:00Z,29.6350,-93.6417,2.0,166.2950193,6.289053983,-99999.0,'11133222,11111222,99999999' 
TABS,ioos:station:wmo:42051:1,1999-05-03T14:30:00Z,29.6350,-93.6417,2.0,179.9997895,6.11,-99999.0,'11133222,11111222,99999999' 
TABS,ioos:station:wmo:42051:1,1999-05-03T15:00:00Z,29.6350,-93.6417,2.0,167.1337766,5.344174398,-99999.0,'11133222,11111222,99999999' 
TABS,ioos:station:wmo:42051:1,1999-05-03T15:30:00Z,29.6350,-93.6417,2.0,173.9486452,5.691713275,-99999.0,'11133222,11111222,99999999' 
TABS,ioos:station:wmo:42051:1,1999-05-03T16:00:00Z,29.6350,-93.6417,2.0,165.576103,5.379563179,-99999.0,'11133222,11111222,99999999' 
TABS,ioos:station:wmo:42051:1,1999-05-03T16:30:00Z,29.6350,-93.6417,2.0,173.6126875,5.393477542,-99999.0,'11133222,11111222,99999999' 
TABS,ioos:station:wmo:42051:1,1999-05-03T17:00:00Z,29.6350,-93.6417,2.0,181.8593845,4.622434424,-99999.0,'11133222,11111222,99999999' 
TABS,ioos:station:wmo:42051:1,1999-05-03T17:30:00Z,29.6350,-93.6417,2.0,175.5709309,5.827400793,-99999.0,'11133222,11111222,99999999' 
TABS,ioos:station:wmo:42051:1,1999-05-03T18:00:00Z,29.6350,-93.6417,2.0,188.9360038,5.72954623,-99999.0,'11133222,11111222,99999999' 
TABS,ioos:station:wmo:42051:1,1999-05-03T18:30:00Z,29.6350,-93.6417,2.0,163.7057802,7.449201299,-99999.0,'11133222,11111222,99999999' 
TABS,ioos:station:wmo:42051:1,1999-05-03T19:00:00Z,29.6350,-93.6417,2.0,178.4404021,5.512041364,-99999.0,'11133222,11111222,99999999' 
TABS,ioos:station:wmo:42051:1,1999-05-03T19:30:00Z,29.6350,-93.6417,2.0,175.20967,3.592547842,-99999.0,'11133222,11111222,99999999' 
TABS,ioos:station:wmo:42051:1,1999-05-03T20:00:00Z,29.6350,-93.6417,2.0,182.5038345,3.433278317,-99999.0,'11133222,11111222,99999999' 
TABS,ioos:station:wmo:42051:1,1999-05-03T20:30:00Z,29.6350,-93.6417,2.0,202.7779251,5.010788361,-99999.0,'11133222,11111222,99999999' 
TABS,ioos:station:wmo:42051:1,1999-05-03T21:00:00Z,29.6350,-93.6417,2.0,177.9396833,4.17269697,-99999.0,'11133222,11111222,99999999' 
TABS,ioos:station:wmo:42051:1,1999-05-03T21:30:00Z,29.6350,-93.6417,2.0,199.0294384,4.56973741,-99999.0,'11133222,11111222,99999999' 
TABS,ioos:station:wmo:42051:1,1999-05-03T22:00:00Z,29.6350,-93.6417,2.0,223.9504308,5.792175757,-99999.0,'11133222,11111222,99999999' 
TABS,ioos:station:wmo:42051:1,1999-05-03T22:30:00Z,29.6350,-93.6417,2.0,217.8820843,6.7910603,-99999.0,'11133222,11111222,99999999' 
TABS,ioos:station:wmo:42051:1,1999-05-03T23:00:00Z,29.6350,-93.6417,2.0,239.6718298,13.28852889,-99999.0,'11111222,11111222,99999999' 
TABS,ioos:station:wmo:42051:1,1999-05-03T23:30:00Z,29.6350,-93.6417,2.0,229.6314164,11.73386552,-99999.0,'11111222,11111222,99999999' 
TABS,ioos:station:wmo:42051:1,1999-05-04T00:00:00Z,29.6350,-93.6417,2.0,230.1151349,13.00599862,-99999.0,'11111222,11111222,99999999' 
TABS,ioos:station:wmo:42051:1,1999-05-04T00:30:00Z,29.6350,-93.6417,2.0,229.006197,12.04317649,-99999.0,'11111222,11111222,99999999' 
TABS,ioos:station:wmo:42051:1,1999-05-04T01:00:00Z,29.6350,-93.6417,2.0,229.8966872,11.09966666,-99999.0,'11111222,11111222,99999999' 
TABS,ioos:station:wmo:42051:1,1999-05-04T01:30:00Z,29.6350,-93.6417,2.0,243.1404455,12.19567546,-99999.0,'11111222,11111222,99999999' 
TABS,ioos:station:wmo:42051:1,1999-05-04T02:00:00Z,29.6350,-93.6417,2.0,245.6730197,13.73994178,-99999.0,'11111222,11111222,99999999' 
TABS,ioos:station:wmo:42051:1,1999-05-04T02:30:00Z,29.6350,-93.6417,2.0,226.2909658,13.80623048,-99999.0,'11111222,11111222,99999999' 
TABS,ioos:station:wmo:42051:1,1999-05-04T03:00:00Z,29.6350,-93.6417,2.0,237.1489438,14.01045681,-99999.0,'11111222,11111222,99999999' 
TABS,ioos:station:wmo:42051:1,1999-05-04T03:30:00Z,29.6350,-93.6417,2.0,241.0812987,16.3370744,-99999.0,'11111222,11111222,99999999' 
TABS,ioos:station:wmo:42051:1,1999-05-04T04:00:00Z,29.6350,-93.6417,2.0,241.2882774,17.67286338,-99999.0,'11111222,11111222,99999999' 
TABS,ioos:station:wmo:42051:1,1999-05-04T04:30:00Z,29.6350,-93.6417,2.0,246.9387104,17.48744121,-99999.0,'11111222,11111222,99999999' 
TABS,ioos:station:wmo:42051:1,1999-05-04T05:00:00Z,29.6350,-93.6417,2.0,248.4602601,17.45925829,-99999.0,'11111222,11111222,99999999' 
TABS,ioos:station:wmo:42051:1,1999-05-04T05:30:00Z,29.6350,-93.6417,2.0,244.6476641,18.80060105,-99999.0,'11111222,11111222,99999999' 
TABS,ioos:station:wmo:42051:1,1999-05-04T06:00:00Z,29.6350,-93.6417,2.0,260.1644701,19.20220821,-99999.0,'11111222,11111222,99999999' 
TABS,ioos:station:wmo:42051:1,1999-05-04T06:30:00Z,29.6350,-93.6417,2.0,259.0505661,18.05873196,-99999.0,'11111222,11111222,99999999' 
TABS,ioos:station:wmo:42051:1,1999-05-04T07:00:00Z,29.6350,-93.6417,2.0,254.120657,20.13844582,-99999.0,'11111222,11111222,99999999' 
TABS,ioos:station:wmo:42051:1,1999-05-04T07:30:00Z,29.6350,-93.6417,2.0,251.0669107,21.11216237,-99999.0,'11111222,11111222,99999999' 
TABS,ioos:station:wmo:42051:1,1999-05-04T08:00:00Z,29.6350,-93.6417,2.0,249.3927932,22.44616003,-99999.0,'11111222,11111222,99999999' 
TABS,ioos:station:wmo:42051:1,1999-05-04T08:30:00Z,29.6350,-93.6417,2.0,265.7920073,26.4412651,-99999.0,'11111222,11111222,99999999' 
TABS,ioos:station:wmo:42051:1,1999-05-04T09:00:00Z,29.6350,-93.6417,2.0,259.7914652,24.37585896,-99999.0,'11111222,11111222,99999999' 
TABS,ioos:station:wmo:42051:1,1999-05-04T09:30:00Z,29.6350,-93.6417,2.0,253.9672772,28.06142192,-99999.0,'11111222,11111222,99999999' 
TABS,ioos:station:wmo:42051:1,1999-05-04T10:00:00Z,29.6350,-93.6417,2.0,249.0279973,28.72265308,-99999.0,'11111222,11111222,99999999' 
TABS,ioos:station:wmo:42051:1,1999-05-04T10:30:00Z,29.6350,-93.6417,2.0,251.8487817,28.69802258,-99999.0,'11111222,11111222,99999999' 
TABS,ioos:station:wmo:42051:1,1999-05-04T11:00:00Z,29.6350,-93.6417,2.0,258.8461987,31.58658259,-99999.0,'11111222,11111222,99999999' 
TABS,ioos:station:wmo:42051:1,1999-05-04T11:30:00Z,29.6350,-93.6417,2.0,255.6158455,29.99008169,-99999.0,'11111222,11111222,99999999' 
TABS,ioos:station:wmo:42051:1,1999-05-04T12:00:00Z,29.6350,-93.6417,2.0,250.5870269,27.80046762,-99999.0,'11111222,11111222,99999999' 
TABS,ioos:station:wmo:42051:1,1999-05-04T12:30:00Z,29.6350,-93.6417,2.0,244.3289854,25.78500533,-99999.0,'11111222,11111222,99999999' 
TABS,ioos:station:wmo:42051:1,1999-05-04T13:00:00Z,29.6350,-93.6417,2.0,244.4593603,26.25563749,-99999.0,'11111222,11111222,99999999' 
TABS,ioos:station:wmo:42051:1,1999-05-04T13:30:00Z,29.6350,-93.6417,2.0,240.4723998,24.49083502,-99999.0,'11111222,11111222,99999999' 
TABS,ioos:station:wmo:42051:1,1999-05-04T14:00:00Z,29.6350,-93.6417,2.0,238.8654065,25.93584585,-99999.0,'11111222,11111222,99999999' 
TABS,ioos:station:wmo:42051:1,1999-05-04T14:30:00Z,29.6350,-93.6417,2.0,237.9993551,23.89023231,-99999.0,'11111222,11111222,99999999' 
TABS,ioos:station:wmo:42051:1,1999-05-04T15:00:00Z,29.6350,-93.6417,2.0,239.8161769,24.30531835,-99999.0,'11111222,11111222,99999999' 
TABS,ioos:station:wmo:42051:1,1999-05-04T15:30:00Z,29.6350,-93.6417,2.0,238.8493241,21.59350134,-99999.0,'11111222,11111222,99999999' 
TABS,ioos:station:wmo:42051:1,1999-05-04T16:00:00Z,29.6350,-93.6417,2.0,241.0154121,22.14339179,-99999.0,'11111222,11111222,99999999' 